Volver al catálogo

AYAME 1

ECS 1

ActivoComunicacionesHEO
NORAD 11261·PAYLOAD·🇯🇵 Japan

Lanzado Feb 6, 1979 desde Tanegashima Space Center

Loading…

Próximos Pases (próximas 24 horas)

TLE

ActualizadoSource: Space-Track

Época: Sep 14, 2026, 06:19 UTC

1 11261U 79009A   26257.26355091 -.00000100  00000-0  00000-0 0  9991
2 11261   9.4721 298.9946 3677525 151.6505 256.9933  1.68584184177660

Sigue AYAME 1 en tiempo real con AllMySat

Download on the App Store